Location: Potomac
(46.8816°N, 113.5795°W)
Time: 03:44:10
(UTC+00:00)

Oscar 19 - Pass Details

Date: 30 June 2022
Orbit: 773 x 790 km, 98.8° (Epoch: 14 August)

Event Time Altitude Azimuth Distance (km) Brightness Sun altitude
Rises 10:58:30 0° 17° (NNE) 3,264 15.1 -6.7°
Reaches altitude 10° 11:00:51 10° 20° (NNE) 2,331 14.3 -6.4°
Maximum altitude 11:05:57 63° 102° (ESE) 860 11.1 -5.7°
Drops below altitude 10° 11:11:00 10° 184° (S) 2,313 12.7 -5.1°
Sets 11:13:20 0° 187° (S) 3,237 13.4 -4.8°
